TimeCST,TemperatureF,Dew PointF,Humidity,Sea Level PressureIn,VisibilityMPH,Wind Direction,Wind SpeedMPH,Gust SpeedMPH,PrecipitationIn,Events,Conditions,WindDirDegrees,DateUTC
12:53 AM,41.0,39.0,93,30.17,10.0,Calm,Calm,-,N/A,,Clear,0,2012-11-08 06:53:00
1:53 AM,39.0,37.0,93,30.18,10.0,Calm,Calm,-,N/A,,Clear,0,2012-11-08 07:53:00
2:53 AM,37.9,36.0,93,30.18,10.0,Calm,Calm,-,N/A,,Clear,0,2012-11-08 08:53:00
3:53 AM,37.0,35.1,93,30.19,10.0,Calm,Calm,-,N/A,,Clear,0,2012-11-08 09:53:00
4:53 AM,36.0,34.0,93,30.21,10.0,Calm,Calm,-,N/A,,Clear,0,2012-11-08 10:53:00
5:53 AM,36.0,34.0,93,30.23,10.0,Calm,Calm,-,N/A,,Clear,0,2012-11-08 11:53:00
6:53 AM,36.0,34.0,93,30.24,10.0,Calm,Calm,-,N/A,,Clear,0,2012-11-08 12:53:00
7:53 AM,46.0,39.9,79,30.26,10.0,Calm,Calm,-,N/A,,Clear,0,2012-11-08 13:53:00
8:53 AM,53.1,39.9,61,30.28,10.0,SE,6.9,-,N/A,,Clear,130,2012-11-08 14:53:00
9:53 AM,57.9,37.9,47,30.27,10.0,SE,8.1,-,N/A,,Clear,140,2012-11-08 15:53:00
10:53 AM,62.1,37.0,39,30.25,10.0,ESE,6.9,-,N/A,,Clear,110,2012-11-08 16:53:00
11:53 AM,64.9,37.9,37,30.23,10.0,SSE,5.8,-,N/A,,Clear,160,2012-11-08 17:53:00
12:53 PM,66.0,37.0,34,30.20,10.0,South,6.9,-,N/A,,Clear,190,2012-11-08 18:53:00
1:53 PM,68.0,39.0,35,30.17,10.0,Variable,4.6,-,N/A,,Clear,0,2012-11-08 19:53:00
2:53 PM,70.0,37.9,31,30.17,10.0,Calm,Calm,-,N/A,,Clear,0,2012-11-08 20:53:00
3:53 PM,69.1,39.0,33,30.16,10.0,SSW,4.6,-,N/A,,Clear,200,2012-11-08 21:53:00
4:53 PM,63.0,45.0,52,30.16,10.0,Calm,Calm,-,N/A,,Clear,0,2012-11-08 22:53:00
5:53 PM,54.0,46.0,75,30.17,10.0,Calm,Calm,-,N/A,,Clear,0,2012-11-08 23:53:00
6:53 PM,50.0,45.0,83,30.17,10.0,Calm,Calm,-,N/A,,Clear,0,2012-11-09 00:53:00
7:53 PM,48.0,44.1,86,30.17,10.0,Calm,Calm,-,N/A,,Clear,0,2012-11-09 01:53:00
8:53 PM,45.0,43.0,93,30.18,10.0,Calm,Calm,-,N/A,,Clear,0,2012-11-09 02:53:00
9:53 PM,45.0,42.1,90,30.17,10.0,Calm,Calm,-,N/A,,Clear,0,2012-11-09 03:53:00
10:53 PM,44.1,42.1,93,30.17,10.0,Calm,Calm,-,N/A,,Clear,0,2012-11-09 04:53:00
11:53 PM,42.1,39.9,92,30.18,10.0,Calm,Calm,-,N/A,,Clear,0,2012-11-09 05:53:00